Location: Clarion
(42.7316°N, 93.7330°W)
Time: 09:35:01
(UTC+00:00)

Cosmos 1000 Rocket - Pass Details

Date: 22 April 2026
Orbit: 952 x 992 km, 82.9° (Epoch: 17 May)

Event Time Altitude Azimuth Distance (km) Brightness Sun altitude
Rises 02:26:10 0° 355° (N) 3,647 8.1 -14.5°
Reaches altitude 10° 02:28:43 10° 359° (N) 2,693 7.3 -14.9°
Maximum altitude 02:34:49 62° 80° (E) 1,064 4.5 -15.8°
Enters shadow 02:39:11 19° 156° (SSE) 2,072 5.7 -16.4°
